Simultaneous Nadir Overpasses (SNOs) Predictions

Prediction of SNOs between GOES-14 and AQUA Satellite Orbit:

Table of predicted SNOs for the next 14.0 days since TLE Epoch: 12/3/2022
Index Date Time (GOES-14) GOES-14 Lat,Lon AQUA Lat,Lon Distance(km) Time Diff (sec)
1 12/03/2022 20:35:10 0.04,-104.03 0.30,-102.87 132.21 80
2 12/04/2022 08:56:15 -0.06,-104.38 0.72,-107.99 410.66 80
3 12/05/2022 20:22:14 0.03,-104.04 0.96, -99.72 491.39 80
4 12/06/2022 08:43:19 -0.05,-104.38 0.05,-104.84 52.07 80
5 12/08/2022 08:27:43 -0.03,-104.38 -0.63,-101.69 306.36 80
6 12/08/2022 20:48:54 0.05,-104.02 -0.57,-106.81 317.36 80
7 12/10/2022 20:38:38 0.05,-104.02 0.14,-103.66 41.67 80
8 12/11/2022 08:59:43 -0.06,-104.40 0.87,-108.78 498.30 80
9 12/12/2022 20:25:41 0.04,-104.03 0.80,-100.50 400.96 80
10 12/13/2022 08:46:46 -0.06,-104.40 0.20,-105.63 139.38 80
11 12/15/2022 08:31:09 -0.05,-104.40 -0.48,-102.47 219.80 80
12 12/15/2022 20:52:19 0.07,-104.02 -0.69,-107.59 406.25 80
